Home > Weather > Durham > Past weeks

Flag for USA Past Weather in Durham, North Carolina, USA — Yesterday and Last 2 Weeks

Now
95 °F

Scattered clouds.


Feels Like: 103 °F
Forecast: 75 / 95 °F
Wind: 10 mph from West

Location: Raleigh-Durham International Airport

Current Time: Jul 28, 2016 at 6:23:47 PM

Latest Report: Jul 28, 2016 at 5:51 PM


Visibility: 10 mi

Pressure: 29.81 "Hg

Humidity: 47%

Dew Point: 72 °F

Location of DurhamLocation

Past Weather in Durham — Graph

°F

Durham Temperature Yesterday

Maximum temperature yesterday: 95 °F (at 1:51 PM)
Minimum temperature yesterday: 76 °F (at 3:51 AM)
Average temperature yesterday: 83 °F

High & Low Weather Summary for the Past Weeks

 TemperatureHumidityPressure
High96 °F (Jul 25, 3:51 PM)97% (Jul 15, 8:51 PM)30.23 "Hg (Jul 15, 8:51 PM)
Low69 °F (Jul 17, 5:51 AM)43% (Jul 21, 3:51 PM)29.81 "Hg (Jul 28, 4:51 PM)
Average82 °F74%30.05 "Hg
* Reported Jul 13 4:51 PM — Jul 28 4:51 PM, Durham, Weather by CustomWeather, © 2016

Note: Actual official high and low records may vary slightly from our data, if they occured in-between our weather recording intervals... More about our weather records

Advertising

Durham Weather History for the Previous 24 Hours

Scroll right to see more
 ConditionsComfort  
Time TempWeatherWind HumidityBarometerVisibility
4:51 PM
Thu, Jul 28
96 °FScattered clouds.12 mph46%29.81 "Hg10 mi
3:51 PM96 °FScattered clouds.13 mph49%29.83 "Hg10 mi
2:51 PM96 °FScattered clouds.15 mph51%29.86 "Hg10 mi
1:51 PM95 °FScattered clouds.10 mph51%29.88 "Hg10 mi
12:51 PM94 °FPassing clouds.12 mph52%29.90 "Hg10 mi
11:51 AM91 °FPassing clouds.7 mph60%29.91 "Hg10 mi
10:51 AM89 °FPassing clouds.6 mph65%29.93 "Hg10 mi
9:51 AM86 °FPassing clouds.5 mph67%29.93 "Hg10 mi
8:51 AM82 °FPassing clouds.3 mph77%29.93 "Hg10 mi
7:51 AM78 °FScattered clouds.No wind84%29.93 "Hg10 mi
6:51 AM74 °FPassing clouds.No wind94%29.93 "Hg8 mi
5:51 AM74 °FPassing clouds.No wind94%29.91 "Hg8 mi
4:51 AM74 °FPassing clouds.No wind94%29.90 "Hg8 mi
3:51 AM75 °FClear.No wind90%29.91 "Hg8 mi
2:51 AM75 °FPassing clouds.No wind90%29.92 "Hg10 mi
1:51 AM76 °FPassing clouds.No wind88%29.93 "Hg10 mi
12:51 AM77 °FPassing clouds.No wind85%29.95 "Hg10 mi
11:51 PM
Wed, Jul 27
77 °FPassing clouds.No wind85%29.94 "Hg10 mi
10:51 PM77 °FPartly cloudy.5 mph79%29.95 "Hg10 mi
9:51 PM79 °FPassing clouds.3 mph72%29.93 "Hg10 mi
8:51 PM79 °FBroken clouds.No wind74%29.93 "Hg10 mi
7:51 PM84 °FPartly sunny.7 mph65%29.93 "Hg10 mi
6:51 PM88 °FBroken clouds.5 mph70%29.93 "Hg10 mi
Weather by CustomWeather, © 2016

See weather overviewHow to use our weather pages